[[{"header":{"parameterUnit":"m.s-1","parameterCategory":2,"la1":30.2991,"la2":30.254,"lo1":-89.0895,"lo2":-89.0444,"dy":0.0017,"dx":0.0017,"nx":28,"ny":28,"refTime":"2024-07-15T03:00:00:Z","depth":"0","parameterNumber":2,"parameterNumberName":"U-component_of_CURRENTS"},"data":[0,0,0,0,0,0,0,0,0,0,0,0,0,0,0,0,0,0,0,0,0,0,0,0,0,0,0,0,0,0,0,0,0,0,0,0,0,0,0,0,0,0,0,0,0,0,0,0,0,0,0,0,0,0,0,0,0,0,0.1965,0.1965,0,0.1974,0.1974,0.1975,0.2017,0.2018,0.2018,0.2019,0.2156,0.216,0.2163,0,0,0,0,0,0,0,0,0,0,0,0,0,0.1998,0.1997,0.1965,0.1965,0.1964,0.1974,0.1974,0.1975,0.2017,0.2018,0.2018,0.2019,0.2155,0.2159,0.2163,0,0,0,0,0,0,0,0,0,0,0,0,0,0.1998,0.1997,0.1965,0.1982,0.1984,0.1974,0.1974,0.1975,0.2017,0.2018,0.2019,0.2019,0.2154,0.2159,0.2164,0.2178,0,0,0.2178,0.218,0,0,0,0,0,0,0,0,0.1998,0.1997,0.198,0.1981,0.1982,0.199,0.2036,0.2048,0.2017,0.201,0.2019,0.202,0.2109,0.2117,0.2123,0.2185,0.2191,0.2179,0.2182,0.2184,0.2185,0,0,0,0,0,0,0,0.1998,0.1997,0.1974,0.198,0.1981,0.1993,0.1995,0.2038,0.2062,0.2011,0.2013,0.2004,0.2111,0.2118,0.2127,0.2193,0.2179,0.2183,0.2186,0.2188,0.2338,0.2339,0,0,0,0,0,0,0.1984,0.1997,0.1974,0.1974,0.1986,0.1992,0.1994,0.1992,0.2059,0.2067,0.2004,0.2006,0.211,0.2121,0.2132,0.2189,0.2184,0.2188,0.2191,0.2337,0.2339,0.234,0,0,0,0,0,0,0.1985,0.1982,0.1973,0.1981,0.198,0.199,0.1988,0.1991,0.2003,0.2051,0.2063,0.2012,0.2111,0.2126,0.2201,0.2194,0.219,0.2195,0.2336,0.2338,0.2339,0.228,0,0,0,0,0,0,0.1986,0.1982,0.1979,0.198,0.1979,0.1981,0.1986,0.1991,0.1994,0.1998,0.2062,0.2075,0.2113,0.2194,0.2206,0.22,0.2198,0.2335,0.2337,0.2339,0.2281,0.228,0.2279,0,0,0,0,0,0.1987,0.1991,0.1979,0.1976,0.1973,0.1981,0.1983,0.1996,0.1994,0.2008,0.2062,0.2073,0.2215,0.22,0.2213,0.2208,0.2334,0.2336,0.2339,0.2281,0.228,0.2279,0,0,0,0,0,0,0.2014,0.1995,0.1982,0.1982,0.1981,0.1986,0.1988,0.1993,0.2041,0.2046,0.2097,0.2115,0.218,0.2209,0.219,0.2261,0.2272,0.2277,0.2224,0.2223,0.2222,0.2194,0.2202,0,0,0,0,0,0.201,0.2003,0.1991,0.1989,0.1981,0.1979,0.1981,0.1989,0.2022,0.2042,0.2084,0.2137,0.2198,0.2223,0.2283,0.2319,0.2348,0.2324,0.2323,0.2322,0.2311,0.2387,0.2391,0.2348,0.2348,0.2348,0,0,0.2017,0.2005,0.2,0.1993,0.1984,0.1969,0.1985,0.1986,0.1983,0.2052,0.2077,0.2144,0.2213,0.2264,0.2292,0.2286,0.2344,0.2325,0.2323,0.2313,0.2389,0.2393,0.2397,0.235,0.2349,0.2349,0,0,0.2014,0.2012,0.1992,0.1986,0.1968,0.197,0.1967,0.1972,0.1986,0.2022,0.2076,0.214,0.2212,0.226,0.2294,0.2323,0.2349,0.2339,0.2295,0.2368,0.2371,0.2375,0.2385,0.2391,0.2323,0.2323,0.2323,0,0.2013,0.1987,0.1993,0.1967,0.1952,0.1964,0.1939,0.1954,0.199,0.2004,0.2027,0.2149,0.2205,0.2269,0.228,0.2315,0.2348,0.2287,0.2364,0.2368,0.2373,0.2383,0.239,0.232,0.2321,0.2321,0.2321,0,0.1985,0.1962,0.1952,0.1914,0.1914,0.1899,0.1904,0.1917,0.1932,0.1951,0.2023,0.2113,0.2185,0.2209,0.2252,0.2309,0.2317,0.2363,0.2357,0.2373,0.2383,0.2391,0.2317,0.2318,0.2318,0.2319,0,0,0.1972,0.1934,0.1927,0.19,0.188,0.1881,0.1873,0.1876,0.1889,0.1933,0.1962,0.2058,0.2111,0.2155,0.2224,0.2273,0.2323,0.2321,0.2326,0.2311,0.2448,0.2304,0.2298,0.2392,0.2394,0.2396,0.2429,0,0.1933,0.188,0.1876,0.1834,0.18,0.1813,0.1817,0.1833,0.1866,0.1909,0.1981,0.2054,0.2089,0.2146,0.2199,0.2321,0.2346,0.2307,0.2451,0.2454,0.231,0.2304,0.2168,0.2174,0.2437,0.2438,0.2439,0,0.1885,0.1859,0.1805,0.1787,0.1777,0.1771,0.1785,0.1796,0.1851,0.1884,0.1946,0.2019,0.2102,0.2144,0.2292,0.2272,0.2342,0.2411,0.2415,0.2306,0.2325,0.2211,0.2179,0.2068,0.2451,0.245,0.2449,0,0.1854,0.1808,0.1767,0.1754,0.1741,0.1739,0.1749,0.1789,0.181,0.188,0.1916,0.2017,0.2092,0.2201,0.2314,0.2326,0.2466,0.2508,0.2425,0.2415,0.2335,0.2313,0.2195,0.2592,0.2592,0.2592,0.2592,0,0.1796,0.1768,0.1755,0.173,0.1717,0.1725,0.1736,0.1762,0.1815,0.1846,0.1917,0.197,0.2119,0.2209,0.2308,0.2364,0.246,0.2397,0.2416,0.2305,0.2281,0.2212,0.2182,0.2593,0.2593,0.2593,0.2593,0,0.1752,0.1736,0.1698,0.169,0.1693,0.1691,0.1717,0.1737,0.1788,0.1834,0.1857,0.1954,0.2049,0.2156,0.2327,0.2336,0.2329,0.2419,0.223,0.2223,0.1994,0.1967,0.1859,0.1831,0.2315,0.2311,0.2308,0,0.1713,0.1686,0.1674,0.1667,0.1661,0.1665,0.1674,0.1717,0.1736,0.1821,0.1842,0.1928,0.1978,0.211,0.2148,0.2221,0.221,0.211,0.2093,0.1924,0.1913,0.1888,0.1874,0.1969,0.1964,0.1959,0.1956,0,0.1655,0.1663,0.1647,0.163,0.163,0.162,0.1636,0.165,0.1704,0.1738,0.1789,0.1835,0.1902,0.1888,0.1926,0.1972,0.1941,0.2016,0.1932,0.1675,0.1557,0.1557,0.1969,0.1917,0.1921,0.1924,0.1926,0.1927,0.1632,0.1621,0.1613,0.16,0.1587,0.1572,0.1561,0.1581,0.1599,0.1621,0.1699,0.17,0.167,0.169,0.1698,0.1532,0.166,0.1494,0.1489,0.149,0.1396,0.1657,0.1567,0.1569,0.1571,0.1572,0.1573,0,0.1603,0.1602,0.1585,0.1558,0.1521,0.153,0.1527,0.1505,0.1499,0.1499,0.1515,0.1417,0.1339,0.1291,0.1126,0.1035,0.1062,0.0999,0.0962,0.0996,0.13,0.1213,0.093,0.093,0.093,0.093,0.0931,0.0931,0.1591,0.1575,0.157,0.1502,0.1474,0.1403,0.1392,0.1367,0.134,0.1242,0.1147,0.1133,0.1021,0.081,0.062,0.0614,0.0597,0.0526,0.061,0.0817,0.0864,0.0909,0.0819,0.0458,0.0457,0.0281,0.0279,0.0277]},{"header":{"parameterUnit":"m.s-1","parameterCategory":2,"la1":30.2991,"la2":30.254,"lo1":-89.0895,"lo2":-89.0444,"dy":0.0017,"dx":0.0017,"nx":28,"ny":28,"refTime":"2024-07-15T03:00:00:Z","depth":"0","parameterNumber":3,"parameterNumberName":"V-component_of_CURRENTS"},"data":[0,0,0,0,0,0,0,0,0,0,0,0,0,0,0,0,0,0,0,0,0,0,0,0,0,0,0,0,0,0,0,0,0,0,0,0,0,0,0,0,0,0,0,0,0,0,0,0,0,0,0,0,0,0,0,0,0,0,0.1153,0.1152,0,0.1091,0.1091,0.1091,0.1099,0.11,0.11,0.11,0.1091,0.1091,0.109,0,0,0,0,0,0,0,0,0,0,0,0,0,0.122,0.1219,0.1153,0.1152,0.115,0.1091,0.1091,0.1091,0.1099,0.11,0.11,0.1101,0.1092,0.1091,0.109,0,0,0,0,0,0,0,0,0,0,0,0,0,0.1185,0.1219,0.1154,0.1142,0.114,0.1091,0.1091,0.1091,0.1099,0.11,0.11,0.1101,0.1092,0.1091,0.109,0.1074,0,0,0.1088,0.1087,0,0,0,0,0,0,0,0,0.1187,0.1183,0.1145,0.1143,0.114,0.1097,0.1111,0.1085,0.1099,0.1122,0.1101,0.1101,0.1093,0.1092,0.1089,0.1074,0.1073,0.1087,0.1087,0.1087,0.1086,0,0,0,0,0,0,0,0.1189,0.1185,0.1136,0.1143,0.114,0.1119,0.1116,0.1106,0.1112,0.112,0.1119,0.11,0.1093,0.109,0.1089,0.1073,0.1088,0.1087,0.1086,0.1086,0.1069,0.1069,0,0,0,0,0,0,0.1185,0.1188,0.1138,0.1134,0.1157,0.1117,0.1114,0.1116,0.1111,0.1108,0.11,0.1101,0.1091,0.109,0.1089,0.1109,0.1087,0.1086,0.1085,0.1069,0.1069,0.1069,0,0,0,0,0,0,0.1187,0.1182,0.114,0.1152,0.1145,0.1115,0.1118,0.1115,0.1111,0.1094,0.1094,0.1098,0.1091,0.109,0.1099,0.1107,0.1085,0.1085,0.1069,0.1069,0.1069,0.1123,0,0,0,0,0,0,0.1189,0.1184,0.118,0.1153,0.1143,0.1118,0.1116,0.1113,0.1095,0.1096,0.1092,0.1092,0.1092,0.1101,0.1098,0.1105,0.1084,0.1069,0.1069,0.1069,0.1121,0.1125,0.1128,0,0,0,0,0,0.1192,0.1189,0.1181,0.1173,0.1142,0.1117,0.1112,0.1096,0.1094,0.1096,0.1104,0.1092,0.1099,0.1101,0.1098,0.1104,0.1069,0.1069,0.1069,0.112,0.1124,0.1128,0,0,0,0,0,0,0.1212,0.1187,0.1178,0.1167,0.1143,0.1116,0.1098,0.1094,0.1099,0.1097,0.1099,0.11,0.1111,0.1095,0.1096,0.1097,0.1078,0.1078,0.1118,0.1122,0.1126,0.1135,0.1083,0,0,0,0,0,0.1212,0.1209,0.1178,0.1167,0.1149,0.1124,0.1108,0.11,0.1094,0.1096,0.1104,0.1102,0.1106,0.1106,0.1105,0.1105,0.1097,0.1103,0.1107,0.111,0.1114,0.1115,0.1119,0.1069,0.1069,0.1069,0,0,0.1209,0.1198,0.1192,0.1171,0.1145,0.1128,0.1118,0.1091,0.1095,0.1093,0.1111,0.1117,0.111,0.1122,0.1122,0.1111,0.1121,0.111,0.1113,0.1116,0.1116,0.1121,0.1125,0.107,0.107,0.1069,0,0,0.1201,0.1195,0.1182,0.1168,0.113,0.1121,0.1115,0.1095,0.1102,0.1112,0.1119,0.1138,0.1133,0.1147,0.1147,0.1163,0.1143,0.115,0.1174,0.1175,0.118,0.1184,0.1187,0.119,0.1148,0.1148,0.1148,0,0.1186,0.1184,0.1173,0.1157,0.1144,0.1122,0.1107,0.1108,0.1107,0.1124,0.1122,0.1151,0.1148,0.1174,0.1185,0.1174,0.1167,0.1164,0.1182,0.1185,0.1188,0.119,0.1194,0.1151,0.115,0.115,0.115,0,0.1173,0.1166,0.1153,0.1139,0.1132,0.1111,0.1106,0.1117,0.1125,0.1138,0.1171,0.1183,0.1203,0.1202,0.12,0.1222,0.1208,0.1192,0.1176,0.1197,0.1197,0.12,0.1154,0.1154,0.1153,0.1152,0,0,0.1127,0.114,0.1131,0.1136,0.1121,0.1116,0.1127,0.1139,0.1159,0.1176,0.1212,0.1234,0.125,0.125,0.1253,0.1257,0.128,0.1234,0.1233,0.1247,0.1282,0.1276,0.1278,0.1264,0.1265,0.1265,0.1276,0,0.1103,0.1097,0.1114,0.1111,0.1099,0.1113,0.1134,0.1154,0.1175,0.1211,0.1234,0.1264,0.1263,0.1277,0.1285,0.1285,0.1288,0.1279,0.1251,0.125,0.125,0.1281,0.1324,0.1338,0.1279,0.1279,0.1279,0,0.1061,0.1074,0.1073,0.1113,0.1109,0.112,0.1159,0.118,0.1225,0.1245,0.1283,0.1297,0.1332,0.1311,0.1331,0.1324,0.1307,0.1299,0.1298,0.1276,0.1249,0.1304,0.1344,0.1267,0.1283,0.1283,0.1283,0,0.1024,0.1039,0.1052,0.1057,0.1097,0.1119,0.1147,0.1191,0.1227,0.127,0.1299,0.1332,0.1357,0.1348,0.1345,0.1335,0.135,0.1331,0.1309,0.1308,0.1331,0.1332,0.1303,0.1328,0.1327,0.1327,0.1327,0,0.0979,0.0981,0.1042,0.1045,0.108,0.1114,0.1163,0.119,0.1249,0.13,0.1322,0.1365,0.1364,0.1377,0.1357,0.1353,0.136,0.1325,0.1315,0.1351,0.1353,0.1273,0.122,0.1328,0.1328,0.1328,0.1328,0,0.0912,0.0946,0.0967,0.1032,0.1058,0.1082,0.1173,0.121,0.1264,0.1327,0.1343,0.1397,0.1415,0.1404,0.1393,0.1376,0.1353,0.1346,0.1391,0.1386,0.1294,0.1243,0.1249,0.1297,0.1336,0.1336,0.1336,0,0.0876,0.0882,0.0958,0.0987,0.1016,0.1076,0.112,0.1198,0.1251,0.1354,0.1385,0.1423,0.1461,0.1456,0.1433,0.1402,0.1351,0.1395,0.1383,0.1304,0.1239,0.1243,0.1284,0.1439,0.144,0.144,0.1441,0,0.0828,0.0858,0.0894,0.0949,0.1,0.1062,0.114,0.1185,0.1285,0.1348,0.1431,0.1471,0.15,0.1505,0.1463,0.1448,0.139,0.1406,0.132,0.1316,0.1325,0.1361,0.1409,0.1447,0.1446,0.1446,0.1446,0.1445,0.0802,0.0821,0.0883,0.0927,0.0982,0.1042,0.1084,0.1179,0.1265,0.1365,0.1439,0.1497,0.1536,0.1508,0.1474,0.141,0.1422,0.1369,0.1315,0.1328,0.137,0.1427,0.1449,0.1449,0.1448,0.1448,0.1447,0,0.0779,0.0818,0.0864,0.0926,0.0962,0.1002,0.1095,0.1142,0.123,0.1332,0.1419,0.1497,0.1481,0.1453,0.139,0.1319,0.1379,0.1263,0.1273,0.1324,0.1368,0.1366,0.1377,0.1377,0.1377,0.1377,0.1377,0.1377,0.0773,0.0811,0.0841,0.0898,0.0934,0.0976,0.1015,0.1091,0.1171,0.1279,0.1347,0.1432,0.1422,0.1231,0.1123,0.1139,0.1145,0.114,0.1128,0.1105,0.1111,0.1117,0.1102,0.1057,0.1057,0.1175,0.1175,0.1174]}],[{"header":{"parameterUnit":"m.s-1","parameterCategory":2,"la1":30.2991,"la2":30.254,"lo1":-89.0895,"lo2":-89.0444,"dy":0.0017,"dx":0.0017,"nx":28,"ny":28,"refTime":"2024-07-15T03:00:00:Z","depth":"2","parameterNumber":2,"parameterNumberName":"U-component_of_CURRENTS"},"data":[0,0,0,0,0,0,0,0,0,0,0,0,0,0,0,0,0,0,0,0,0,0,0,0,0,0,0,0,0,0,0,0,0,0,0,0,0,0,0,0,0,0,0,0,0,0,0,0,0,0,0,0,0,0,0,0,0,0,0.1098,0.1098,0,0.1069,0.1067,0.1066,0.1073,0.1075,0.1077,0.1078,0.1122,0.1122,0.1121,0,0,0,0,0,0,0,0,0,0,0,0,0,0.1035,0.1036,0.1098,0.1098,0.1099,0.1069,0.1067,0.1066,0.1073,0.1075,0.1077,0.1079,0.1123,0.1122,0.1121,0,0,0,0,0,0,0,0,0,0,0,0,0,0.1027,0.1036,0.1097,0.1109,0.111,0.1069,0.1067,0.1065,0.1072,0.1075,0.1078,0.108,0.1123,0.1122,0.1121,0.1064,0,0,0.1119,0.1119,0,0,0,0,0,0,0,0,0.1028,0.1028,0.1106,0.1108,0.111,0.1089,0.1062,0.1073,0.1072,0.1073,0.1078,0.1081,0.1125,0.1124,0.1093,0.1066,0.1068,0.1119,0.1119,0.1118,0.1118,0,0,0,0,0,0,0,0.1029,0.1029,0.1073,0.1107,0.111,0.1074,0.1075,0.1062,0.1075,0.1073,0.1077,0.1093,0.1125,0.1093,0.1094,0.1069,0.1119,0.1119,0.1118,0.1118,0.1082,0.1081,0,0,0,0,0,0,0.1062,0.103,0.1074,0.1073,0.1089,0.1074,0.1075,0.1082,0.1074,0.1079,0.1091,0.1094,0.1093,0.1095,0.1096,0.1129,0.1118,0.1118,0.1117,0.1082,0.1082,0.1081,0,0,0,0,0,0,0.106,0.1066,0.1075,0.1062,0.1063,0.1075,0.1081,0.1081,0.1072,0.109,0.1093,0.1089,0.1095,0.1097,0.1111,0.1128,0.1117,0.1117,0.1083,0.1082,0.1081,0.1131,0,0,0,0,0,0,0.1058,0.1065,0.1075,0.1064,0.1065,0.1058,0.108,0.1079,0.1084,0.1087,0.1088,0.1093,0.1097,0.1112,0.111,0.1127,0.1116,0.1084,0.1083,0.1082,0.113,0.1132,0.1133,0,0,0,0,0,0.1056,0.1044,0.1075,0.1082,0.1081,0.1059,0.1053,0.1062,0.1081,0.1064,0.1085,0.1094,0.1105,0.1111,0.1109,0.1126,0.1084,0.1083,0.1082,0.1129,0.1131,0.1133,0,0,0,0,0,0,0.1013,0.1045,0.1079,0.1078,0.1084,0.1065,0.1073,0.1064,0.1057,0.1094,0.1087,0.1092,0.1106,0.1098,0.1106,0.1108,0.1095,0.1093,0.1131,0.1134,0.1135,0.1095,0.1116,0,0,0,0,0,0.1017,0.1018,0.1048,0.1045,0.1074,0.1076,0.1072,0.1083,0.1084,0.1084,0.1089,0.1098,0.1088,0.1102,0.1092,0.1095,0.1071,0.1101,0.1103,0.1105,0.1068,0.1079,0.1079,0.1077,0.1077,0.1077,0,0,0.0988,0.1019,0.1013,0.1038,0.1063,0.1062,0.1077,0.1096,0.1083,0.1093,0.1094,0.1103,0.1086,0.1094,0.1099,0.1102,0.109,0.1104,0.1106,0.1067,0.1078,0.1078,0.1078,0.1076,0.1076,0.1077,0,0,0.0947,0.0991,0.0994,0.1,0.106,0.1067,0.1078,0.1093,0.1105,0.111,0.111,0.1121,0.1123,0.1104,0.1094,0.109,0.1092,0.1106,0.1097,0.111,0.1111,0.1111,0.1075,0.1071,0.1118,0.1119,0.1119,0,0.0925,0.0941,0.0983,0.0995,0.1006,0.1071,0.1069,0.1072,0.1077,0.1088,0.1131,0.1111,0.1114,0.108,0.1087,0.1094,0.1092,0.1101,0.1115,0.1114,0.1114,0.1077,0.1072,0.1121,0.1121,0.112,0.112,0,0.087,0.0906,0.0917,0.096,0.0959,0.0979,0.1016,0.1032,0.1084,0.1092,0.1107,0.1114,0.1105,0.111,0.1102,0.1087,0.1083,0.1114,0.1116,0.1117,0.1077,0.1072,0.1124,0.1123,0.1123,0.1122,0,0,0.0798,0.0866,0.0877,0.0909,0.0956,0.0951,0.0963,0.0986,0.1002,0.1044,0.1045,0.104,0.1081,0.1066,0.107,0.107,0.1073,0.1098,0.1098,0.1071,0.1078,0.0926,0.0905,0.1137,0.1136,0.1136,0.1051,0,0.0773,0.0776,0.0813,0.0825,0.0852,0.0901,0.0891,0.0914,0.0971,0.0994,0.1027,0.104,0.1057,0.1081,0.1086,0.1075,0.1061,0.1089,0.1069,0.1066,0.0941,0.0895,0.0858,0.0766,0.1045,0.1044,0.1044,0,0.0746,0.0752,0.0751,0.0802,0.082,0.0825,0.0857,0.086,0.0905,0.0949,0.0987,0.1026,0.1017,0.1057,0.1032,0.1066,0.106,0.1049,0.1048,0.0873,0.0903,0.0809,0.0745,0.1034,0.1035,0.1036,0.1036,0,0.0706,0.0738,0.0739,0.074,0.0775,0.0797,0.0828,0.0863,0.087,0.0937,0.0949,0.0987,0.0989,0.1015,0.1003,0.1043,0.0965,0.103,0.0865,0.0854,0.0789,0.0772,0.0991,0.0991,0.0991,0.0992,0.0992,0,0.0685,0.0695,0.0732,0.0733,0.0749,0.0778,0.0815,0.0849,0.0872,0.0845,0.094,0.087,0.0985,0.0962,0.0984,0.0877,0.096,0.0812,0.0811,0.08,0.0786,0.0997,0.0999,0.0988,0.0989,0.099,0.099,0,0.0654,0.0678,0.07,0.0733,0.0756,0.077,0.082,0.0808,0.0846,0.0808,0.0819,0.0794,0.0746,0.082,0.0819,0.0797,0.0755,0.0696,0.064,0.063,0.0642,0.0647,0.0507,0.0501,0.0496,0.0491,0.0488,0,0.0637,0.0639,0.0699,0.0711,0.0748,0.0776,0.0774,0.0812,0.0764,0.0691,0.0618,0.0585,0.0487,0.0427,0.0425,0.0428,0.0559,0.0373,0.0414,0.0572,0.0588,0.0602,0.0614,0.0364,0.0359,0.0356,0.0353,0,0.0579,0.0617,0.0613,0.0665,0.069,0.0689,0.0685,0.063,0.0595,0.0538,0.0363,0.0289,0.0184,0.0135,0.0144,0.0128,0.0387,0.0287,0.0494,0.0467,0.0423,0.0443,0.0463,0.032,0.0324,0.0326,0.0328,0.0329,0.0535,0.0527,0.0554,0.0587,0.0621,0.0588,0.0566,0.0479,0.0385,0.0247,0.0144,0.0058,-0.0023,-0.006,-0.0064,0.0007,0.0011,0.0089,0.0108,0.0129,0.0102,0.0048,-0.0131,-0.0131,-0.013,-0.013,-0.0129,0,0.0479,0.0473,0.0469,0.0502,0.0494,0.058,0.048,0.0388,0.0247,0.0127,0.001,-0.0097,-0.0179,-0.0127,-0.0102,-0.0167,-0.0091,-0.0115,0.0048,0.0073,0.0098,0.008,-0.0164,-0.0163,-0.0162,-0.0161,0,0,0.0439,0.0404,0.0385,0.0357,0.0419,0.0434,0.0396,0.0255,0.0161,-0.0022,-0.0034,-0.0187,-0.0178,-0.0158,-0.0208,-0.0122,-0.0005,-0.0139,-0.0129,0.0087,0.0115,0.0168,0.0159,0,0,0,0,0]},{"header":{"parameterUnit":"m.s-1","parameterCategory":2,"la1":30.2991,"la2":30.254,"lo1":-89.0895,"lo2":-89.0444,"dy":0.0017,"dx":0.0017,"nx":28,"ny":28,"refTime":"2024-07-15T03:00:00:Z","depth":"2","parameterNumber":3,"parameterNumberName":"V-component_of_CURRENTS"},"data":[0,0,0,0,0,0,0,0,0,0,0,0,0,0,0,0,0,0,0,0,0,0,0,0,0,0,0,0,0,0,0,0,0,0,0,0,0,0,0,0,0,0,0,0,0,0,0,0,0,0,0,0,0,0,0,0,0,0,0.0098,0.0097,0,-0.0045,-0.0047,-0.0049,-0.0113,-0.0113,-0.0113,-0.0112,-0.0191,-0.0194,-0.0196,0,0,0,0,0,0,0,0,0,0,0,0,0,0.0103,0.0105,0.0098,0.0096,0.0095,-0.0045,-0.0047,-0.0049,-0.0113,-0.0113,-0.0113,-0.0112,-0.019,-0.0193,-0.0196,0,0,0,0,0,0,0,0,0,0,0,0,0,0.0043,0.0105,0.0098,0.0048,0.0042,-0.0045,-0.0047,-0.005,-0.0113,-0.0113,-0.0112,-0.0112,-0.0189,-0.0193,-0.0197,-0.023,0,0,-0.0208,-0.0209,0,0,0,0,0,0,0,0,0.0047,0.0043,0.0057,0.0051,0.0044,-0.0059,-0.0075,-0.0106,-0.0114,-0.0057,-0.0112,-0.0112,-0.014,-0.0148,-0.018,-0.0234,-0.0237,-0.0208,-0.021,-0.0212,-0.0213,0,0,0,0,0,0,0,0.0051,0.0047,0.0039,0.0055,0.0047,-0.0041,-0.0047,-0.0082,-0.01,-0.0062,-0.0066,-0.0079,-0.0143,-0.0176,-0.0182,-0.0238,-0.0208,-0.0211,-0.0214,-0.0215,-0.0337,-0.0338,0,0,0,0,0,0,0.0084,0.0053,0.0044,0.0035,0.0049,-0.004,-0.0048,-0.0028,-0.0101,-0.0112,-0.0079,-0.0081,-0.017,-0.0178,-0.0185,-0.0227,-0.0212,-0.0215,-0.0217,-0.0336,-0.0337,-0.0339,0,0,0,0,0,0,0.0086,0.0086,0.0049,0.004,0.0029,-0.0039,-0.0018,-0.0031,-0.0049,-0.0115,-0.0125,-0.0081,-0.017,-0.018,-0.0258,-0.023,-0.0217,-0.022,-0.0335,-0.0337,-0.0338,-0.0312,0,0,0,0,0,0,0.0087,0.0088,0.0085,0.0044,0.0031,-0.0016,-0.0019,-0.0034,-0.0058,-0.0061,-0.012,-0.0128,-0.0171,-0.0253,-0.0262,-0.0235,-0.0223,-0.0334,-0.0336,-0.0338,-0.0311,-0.0312,-0.0313,0,0,0,0,0,0.0088,0.007,0.0087,0.0083,0.004,-0.0017,-0.0034,-0.0083,-0.0058,-0.009,-0.0145,-0.0126,-0.0269,-0.0259,-0.0269,-0.0241,-0.0333,-0.0335,-0.0337,-0.0311,-0.0312,-0.0313,0,0,0,0,0,0,0.0036,0.0061,0.0078,0.0062,0.0028,-0.0028,-0.0059,-0.0068,-0.0134,-0.0122,-0.0168,-0.0184,-0.0243,-0.0254,-0.024,-0.0285,-0.0285,-0.0289,-0.0261,-0.0263,-0.0263,-0.0207,-0.0226,0,0,0,0,0,0.0039,0.0045,0.0045,0.0019,0.0033,0.0004,-0.0026,-0.0046,-0.0097,-0.0123,-0.0153,-0.0193,-0.0262,-0.0273,-0.0338,-0.036,-0.0363,-0.0342,-0.0343,-0.0343,-0.0306,-0.0336,-0.0335,-0.0346,-0.0346,-0.0346,0,0,-0.0002,0.0017,0.0011,0.001,0.0003,-0.0005,-0.0013,-0.0041,-0.0054,-0.0119,-0.0142,-0.0211,-0.0281,-0.0336,-0.0353,-0.0332,-0.0347,-0.0346,-0.0346,-0.0308,-0.0338,-0.0336,-0.0335,-0.0348,-0.0348,-0.0347,0,0,-0.0044,-0.0027,-0.0005,-0.0025,-0.0021,-0.0032,-0.0022,-0.0038,-0.0042,-0.0087,-0.0146,-0.0207,-0.0263,-0.0327,-0.0363,-0.0399,-0.0374,-0.0392,-0.032,-0.0351,-0.0349,-0.0347,-0.0362,-0.0362,-0.0363,-0.0363,-0.0363,0,-0.0086,-0.0053,-0.0029,-0.0015,-0.003,-0.0021,-0.0016,-0.0032,-0.0086,-0.009,-0.0083,-0.0197,-0.0258,-0.0336,-0.0351,-0.0395,-0.0396,-0.0311,-0.0348,-0.0347,-0.0345,-0.0361,-0.0361,-0.0362,-0.0362,-0.0362,-0.0362,0,-0.0106,-0.0086,-0.008,-0.0031,-0.0049,-0.0065,-0.0046,-0.0045,-0.0018,-0.0043,-0.0087,-0.0176,-0.023,-0.026,-0.0313,-0.0335,-0.0337,-0.0369,-0.0336,-0.0342,-0.0359,-0.036,-0.0361,-0.0361,-0.0361,-0.0361,0,0,-0.0169,-0.0097,-0.0094,-0.0065,-0.0056,-0.0067,-0.0049,-0.0047,-0.003,-0.0051,-0.0046,-0.0151,-0.0159,-0.02,-0.0261,-0.0271,-0.0287,-0.0286,-0.0288,-0.0281,-0.0327,-0.0268,-0.0263,-0.0314,-0.0314,-0.0314,-0.0347,0,-0.0181,-0.0135,-0.0106,-0.0099,-0.0068,-0.0057,-0.0048,-0.0055,-0.0041,-0.0043,-0.0081,-0.0124,-0.0145,-0.0164,-0.0177,-0.0269,-0.0283,-0.0273,-0.0336,-0.0338,-0.0269,-0.026,-0.0278,-0.0302,-0.0347,-0.0347,-0.0347,0,-0.0185,-0.0159,-0.0115,-0.0077,-0.0058,-0.0056,-0.002,-0.0024,-0.0027,-0.0011,-0.0021,-0.0059,-0.0086,-0.0105,-0.0172,-0.0153,-0.0221,-0.0278,-0.0282,-0.0222,-0.0278,-0.0303,-0.0301,-0.0348,-0.0348,-0.0348,-0.0348,0,-0.0199,-0.016,-0.0113,-0.0119,-0.008,-0.0044,-0.0024,-0.0011,-0.0012,0.0012,0.0007,-0.0007,-0.0034,-0.0071,-0.014,-0.0156,-0.0209,-0.0268,-0.0284,-0.0282,-0.0303,-0.0301,-0.0326,-0.0326,-0.0326,-0.0326,-0.0326,0,-0.0209,-0.0189,-0.0108,-0.0102,-0.006,-0.0035,0.0001,0.0032,0.0029,0.001,0.0026,0.0004,-0.0024,-0.0061,-0.0112,-0.0155,-0.0183,-0.0246,-0.0275,-0.0296,-0.0294,-0.0338,-0.0338,-0.0327,-0.0327,-0.0327,-0.0326,0,-0.0221,-0.0167,-0.0129,-0.0074,-0.0047,-0.0019,0.0014,0.0012,0.0037,0.0019,0.0025,-0.0,0.0009,-0.0014,-0.0094,-0.0139,-0.0186,-0.022,-0.0216,-0.0242,-0.0252,-0.0252,-0.0229,-0.0227,-0.0225,-0.0224,-0.0222,0,-0.0208,-0.0177,-0.0111,-0.0077,-0.0038,0.0,0.0018,0.0034,0.0014,0.0003,-0.0026,-0.0016,0.0003,-0.0027,-0.0039,-0.0051,-0.0141,-0.0174,-0.0212,-0.0205,-0.0238,-0.024,-0.0242,-0.0255,-0.0254,-0.0253,-0.0253,0,-0.0217,-0.018,-0.0162,-0.0088,-0.0043,-0.0028,-0.0005,-0.0029,-0.0032,-0.0022,-0.0032,-0.0009,0.0023,0.0023,0.0024,-0.0018,-0.0142,-0.0159,-0.0172,-0.0252,-0.0226,-0.0259,-0.0261,-0.0247,-0.0247,-0.0248,-0.0248,-0.0248,-0.0239,-0.022,-0.0171,-0.0112,-0.0065,-0.0052,-0.0043,-0.0038,-0.0042,-0.0035,-0.0034,0.0019,-0.0051,0.0017,0.0016,0.0012,-0.0026,-0.0158,-0.0163,-0.0168,-0.0139,-0.0109,-0.0103,-0.0103,-0.0103,-0.0103,-0.0103,0,-0.0259,-0.0229,-0.0192,-0.0133,-0.0107,-0.0046,-0.006,-0.0061,-0.0027,-0.002,0.004,-0.0006,0.0006,-0.0009,0.0019,-0.001,-0.0018,-0.0064,-0.0124,-0.0132,-0.0139,-0.011,-0.0066,-0.0065,-0.0064,-0.0063,0,0,-0.0277,-0.0258,-0.024,-0.0189,-0.012,-0.0078,-0.0067,-0.0034,-0.0025,-0.0004,0.0022,0.003,-0.0024,-0.0047,-0.0075,-0.0055,-0.0076,-0.0043,-0.0084,-0.0163,-0.0167,-0.0218,-0.0184,0,0,0,0,0]}],[{"header":{"parameterUnit":"m.s-1","parameterCategory":2,"la1":30.2991,"la2":30.254,"lo1":-89.0895,"lo2":-89.0444,"dy":0.0017,"dx":0.0017,"nx":28,"ny":28,"refTime":"2024-07-15T03:00:00:Z","depth":"4","parameterNumber":2,"parameterNumberName":"U-component_of_CURRENTS"},"data":[0,0,0,0,0,0,0,0,0,0,0,0,0,0,0,0,0,0,0,0,0,0,0,0,0,0,0,0,0,0,0,0,0,0,0,0,0,0,0,0,0,0,0,0,0,0,0,0,0,0,0,0,0,0,0,0,0,0,-0.0722,-0.0721,0,-0.0685,-0.0685,-0.0686,-0.08,-0.0803,-0.0805,-0.0807,-0.0906,-0.0907,-0.0907,0,0,0,0,0,0,0,0,0,0,0,0,0,-0.0709,-0.0711,-0.0722,-0.0721,-0.0719,-0.0684,-0.0685,-0.0686,-0.08,-0.0803,-0.0806,-0.0808,-0.0906,-0.0907,-0.0907,0,0,0,0,0,0,0,0,0,0,0,0,0,-0.071,-0.0711,-0.0723,-0.0762,-0.0764,-0.0684,-0.0685,-0.0686,-0.0799,-0.0803,-0.0806,-0.0809,-0.0906,-0.0907,-0.0907,-0.0843,0,0,-0.091,-0.091,0,0,0,0,0,0,0,0,-0.071,-0.0712,-0.0758,-0.0759,-0.0761,-0.0739,-0.0716,-0.0741,-0.0798,-0.08,-0.0807,-0.0811,-0.0852,-0.0857,-0.0859,-0.0847,-0.0852,-0.091,-0.091,-0.091,-0.0911,0,0,0,0,0,0,0,-0.071,-0.0713,-0.0721,-0.0755,-0.0757,-0.0717,-0.0725,-0.0721,-0.082,-0.08,-0.0805,-0.0779,-0.0856,-0.0858,-0.0863,-0.0853,-0.091,-0.091,-0.0911,-0.0911,-0.0987,-0.0989,0,0,0,0,0,0,-0.0695,-0.0714,-0.0722,-0.0718,-0.0729,-0.0715,-0.0723,-0.0754,-0.0817,-0.0825,-0.0776,-0.0784,-0.0855,-0.0861,-0.0866,-0.0984,-0.091,-0.0911,-0.0911,-0.0986,-0.0988,-0.0989,0,0,0,0,0,0,-0.0696,-0.0698,-0.0723,-0.0701,-0.07,-0.0711,-0.0744,-0.0751,-0.0806,-0.0794,-0.0809,-0.0829,-0.0858,-0.0865,-0.0894,-0.0981,-0.0911,-0.0912,-0.0984,-0.0986,-0.0989,-0.1096,0,0,0,0,0,0,-0.0697,-0.07,-0.0728,-0.0702,-0.07,-0.0719,-0.0739,-0.0747,-0.0775,-0.0788,-0.0843,-0.0853,-0.0861,-0.0892,-0.0894,-0.0981,-0.0913,-0.0982,-0.0985,-0.0988,-0.109,-0.1101,-0.1111,0,0,0,0,0,-0.0697,-0.0724,-0.0731,-0.073,-0.0737,-0.0718,-0.0717,-0.0741,-0.0774,-0.0806,-0.0829,-0.0854,-0.0915,-0.0892,-0.0895,-0.0984,-0.098,-0.0984,-0.0988,-0.1085,-0.1099,-0.1111,0,0,0,0,0,0,-0.0722,-0.0735,-0.0744,-0.0773,-0.076,-0.0734,-0.0743,-0.0761,-0.0802,-0.0829,-0.0843,-0.0853,-0.0909,-0.0915,-0.089,-0.1013,-0.0964,-0.0968,-0.1038,-0.1051,-0.1061,-0.1065,-0.0913,0,0,0,0,0,-0.0734,-0.0767,-0.0756,-0.0769,-0.0774,-0.0767,-0.0765,-0.0786,-0.0796,-0.0823,-0.0848,-0.0884,-0.0912,-0.0958,-0.0959,-0.1017,-0.0973,-0.1084,-0.1094,-0.1103,-0.1107,-0.1085,-0.1094,-0.1001,-0.1001,-0.1001,0,0,-0.0735,-0.0742,-0.0759,-0.0775,-0.077,-0.0776,-0.0783,-0.0796,-0.0814,-0.082,-0.0872,-0.0897,-0.0921,-0.0985,-0.1019,-0.102,-0.1104,-0.1108,-0.1116,-0.1115,-0.109,-0.1099,-0.1107,-0.1004,-0.1003,-0.1003,0,0,-0.0737,-0.0775,-0.0806,-0.0808,-0.0806,-0.0799,-0.0816,-0.0823,-0.0859,-0.0885,-0.0905,-0.0982,-0.101,-0.107,-0.1097,-0.1163,-0.113,-0.1186,-0.1285,-0.1265,-0.1272,-0.1278,-0.1221,-0.1221,-0.123,-0.123,-0.123,0,-0.0741,-0.0779,-0.0801,-0.0821,-0.0814,-0.082,-0.0836,-0.0854,-0.0871,-0.0897,-0.0921,-0.1018,-0.1056,-0.1157,-0.1205,-0.1196,-0.1148,-0.1241,-0.1278,-0.1283,-0.1287,-0.1228,-0.1226,-0.1236,-0.1235,-0.1235,-0.1234,0,-0.0754,-0.0794,-0.0803,-0.0841,-0.0844,-0.0852,-0.0865,-0.0895,-0.0933,-0.0956,-0.1054,-0.1115,-0.1198,-0.1242,-0.1254,-0.1341,-0.1282,-0.1262,-0.1246,-0.1303,-0.1237,-0.1233,-0.1244,-0.1242,-0.124,-0.1239,0,0,-0.075,-0.0808,-0.0815,-0.0836,-0.0861,-0.086,-0.0893,-0.0921,-0.0967,-0.1039,-0.1129,-0.1232,-0.1306,-0.1342,-0.1404,-0.143,-0.1441,-0.1385,-0.1381,-0.1328,-0.1357,-0.1253,-0.1238,-0.1419,-0.1419,-0.142,-0.1294,0,-0.0755,-0.0799,-0.0824,-0.085,-0.0873,-0.089,-0.0921,-0.0957,-0.1004,-0.1092,-0.1209,-0.1318,-0.1334,-0.144,-0.1462,-0.1434,-0.1438,-0.1474,-0.131,-0.1304,-0.1206,-0.1234,-0.1421,-0.1291,-0.129,-0.1289,-0.1289,0,-0.0758,-0.0794,-0.0836,-0.0878,-0.0892,-0.0916,-0.0966,-0.1001,-0.1107,-0.1172,-0.1305,-0.1384,-0.1506,-0.1512,-0.1482,-0.1496,-0.1442,-0.1404,-0.1398,-0.1261,-0.1195,-0.1224,-0.1281,-0.1282,-0.1282,-0.1283,-0.1283,0,-0.0737,-0.0789,-0.0824,-0.0838,-0.0899,-0.0932,-0.0969,-0.1042,-0.111,-0.1264,-0.1346,-0.1455,-0.1546,-0.1505,-0.1466,-0.147,-0.1374,-0.1363,-0.1205,-0.1195,-0.1278,-0.1273,-0.1317,-0.1317,-0.1317,-0.1318,-0.1318,0,-0.0721,-0.0751,-0.083,-0.0858,-0.0905,-0.0957,-0.1033,-0.1084,-0.1233,-0.1309,-0.1426,-0.1487,-0.1542,-0.1513,-0.1459,-0.1308,-0.1358,-0.1211,-0.1163,-0.1323,-0.1325,-0.1273,-0.127,-0.1313,-0.1314,-0.1315,-0.1316,0,-0.0687,-0.0743,-0.0787,-0.0873,-0.0906,-0.0948,-0.1078,-0.1118,-0.1267,-0.1382,-0.1461,-0.152,-0.1443,-0.1446,-0.1357,-0.1273,-0.1171,-0.1105,-0.1259,-0.1222,-0.1,-0.1004,-0.0904,-0.0899,-0.0896,-0.0892,-0.089,0,-0.0671,-0.0701,-0.079,-0.082,-0.0868,-0.0952,-0.0988,-0.1136,-0.1174,-0.1345,-0.1362,-0.1401,-0.1407,-0.1143,-0.1167,-0.1051,-0.1033,-0.0971,-0.1016,-0.0998,-0.0961,-0.0971,-0.098,-0.0883,-0.0883,-0.0881,-0.088,0,-0.0647,-0.0687,-0.0723,-0.0783,-0.0826,-0.085,-0.092,-0.0964,-0.1107,-0.1274,-0.1214,-0.121,-0.1105,-0.1011,-0.0952,-0.0873,-0.1017,-0.093,-0.0938,-0.098,-0.0972,-0.0941,-0.0955,-0.0867,-0.0869,-0.087,-0.0871,0,-0.0625,-0.0625,-0.0681,-0.0713,-0.075,-0.0713,-0.0766,-0.0767,-0.0842,-0.1041,-0.0987,-0.0999,-0.1048,-0.0913,-0.0847,-0.0788,-0.0763,-0.0712,-0.0731,-0.0746,-0.0765,-0.0736,-0.0509,0,0,0,0,0,-0.0588,-0.0577,-0.0606,-0.0607,-0.0623,-0.0636,-0.0687,-0.0737,-0.0887,-0.0792,-0.0914,-0.0821,-0.0758,-0.0727,-0.0627,-0.0789,-0.0778,-0.0672,-0.0733,-0.0793,-0.0808,-0.0852,0,0,0,0,0,0,-0.0574,-0.0584,-0.0577,-0.0509,-0.0482,-0.0461,-0.0474,-0.0561,-0.0496,-0.0664,-0.0577,-0.0744,-0.0635,-0.0791,-0.0602,-0.061,-0.0617,-0.071,-0.0706,-0.0784,-0.0798,-0.0811,-0.0861,0,0,0,0,0]},{"header":{"parameterUnit":"m.s-1","parameterCategory":2,"la1":30.2991,"la2":30.254,"lo1":-89.0895,"lo2":-89.0444,"dy":0.0017,"dx":0.0017,"nx":28,"ny":28,"refTime":"2024-07-15T03:00:00:Z","depth":"4","parameterNumber":3,"parameterNumberName":"V-component_of_CURRENTS"},"data":[0,0,0,0,0,0,0,0,0,0,0,0,0,0,0,0,0,0,0,0,0,0,0,0,0,0,0,0,0,0,0,0,0,0,0,0,0,0,0,0,0,0,0,0,0,0,0,0,0,0,0,0,0,0,0,0,0,0,-0.0034,-0.0032,0,0.0047,0.0047,0.0048,0.0081,0.0082,0.0082,0.0082,0.0117,0.0117,0.0118,0,0,0,0,0,0,0,0,0,0,0,0,0,-0.01,-0.01,-0.0034,-0.0032,-0.0031,0.0047,0.0047,0.0048,0.0081,0.0082,0.0082,0.0083,0.0117,0.0117,0.0118,0,0,0,0,0,0,0,0,0,0,0,0,0,-0.0057,-0.01,-0.0034,-0.0,0.0004,0.0047,0.0047,0.0048,0.0081,0.0082,0.0082,0.0083,0.0116,0.0117,0.0118,0.011,0,0,0.012,0.0121,0,0,0,0,0,0,0,0,-0.0059,-0.0055,-0.0007,-0.0002,0.0003,0.006,0.0037,0.0069,0.0081,0.0045,0.0083,0.0083,0.0097,0.01,0.0105,0.0112,0.0114,0.012,0.0121,0.0121,0.0121,0,0,0,0,0,0,0,-0.0062,-0.0058,-0.0008,-0.0005,0.0001,0.0032,0.0037,0.0043,0.0061,0.0048,0.0053,0.0071,0.0099,0.0104,0.0106,0.0114,0.012,0.0121,0.0122,0.0122,0.0132,0.0132,0,0,0,0,0,0,-0.0063,-0.0061,-0.0011,-0.0005,-0.002,0.0033,0.0039,0.0036,0.0062,0.0069,0.0071,0.0073,0.0103,0.0105,0.0107,0.0107,0.0121,0.0122,0.0122,0.0132,0.0132,0.0131,0,0,0,0,0,0,-0.0066,-0.0061,-0.0014,-0.0025,-0.0016,0.0033,0.003,0.0037,0.0048,0.0081,0.0085,0.0075,0.0103,0.0106,0.0121,0.0108,0.0122,0.0123,0.0132,0.0132,0.0132,0.0101,0,0,0,0,0,0,-0.0068,-0.0063,-0.0067,-0.0026,-0.0015,0.0017,0.003,0.0039,0.0062,0.0065,0.0086,0.009,0.0104,0.012,0.0122,0.011,0.0124,0.0132,0.0132,0.0132,0.0103,0.01,0.0098,0,0,0,0,0,-0.0072,-0.0064,-0.0069,-0.0061,-0.0023,0.0018,0.0025,0.0059,0.0061,0.0068,0.0083,0.0089,0.0119,0.0121,0.0123,0.011,0.0133,0.0132,0.0132,0.0104,0.0101,0.0098,0,0,0,0,0,0,-0.0077,-0.0059,-0.0062,-0.0047,-0.0019,0.0026,0.0045,0.0056,0.0073,0.0071,0.0091,0.0096,0.0107,0.0112,0.0114,0.0113,0.0124,0.0124,0.0102,0.0099,0.0097,0.0084,0.0124,0,0,0,0,0,-0.0088,-0.0084,-0.0059,-0.0041,-0.0034,-0.0003,0.0017,0.0032,0.0058,0.0066,0.008,0.0091,0.0105,0.0106,0.0122,0.0117,0.0134,0.0109,0.0107,0.0105,0.0095,0.0129,0.0129,0.013,0.013,0.013,0,0,-0.0084,-0.0068,-0.0067,-0.0043,-0.0023,-0.0015,0.0009,0.0037,0.0038,0.0065,0.0068,0.0089,0.0105,0.0109,0.0112,0.011,0.0112,0.0104,0.0102,0.0094,0.0128,0.0128,0.0128,0.013,0.013,0.013,0,0,-0.0067,-0.0066,-0.0066,-0.0053,-0.0024,-0.001,-0.0006,0.0022,0.0026,0.0036,0.0055,0.0072,0.0083,0.0095,0.0101,0.0093,0.0108,0.0089,0.0055,0.0087,0.0088,0.0088,0.0104,0.0107,0.0077,0.0077,0.0077,0,-0.0068,-0.0068,-0.0053,-0.0047,-0.004,-0.0015,-0.0019,-0.0008,0.0022,0.0016,0.0034,0.0059,0.0078,0.0078,0.0075,0.0087,0.0101,0.0064,0.0084,0.0085,0.0086,0.0103,0.0106,0.0076,0.0076,0.0076,0.0076,0,-0.0059,-0.0063,-0.0053,-0.0057,-0.0047,-0.0037,-0.003,-0.0027,-0.0021,-0.0015,-0.0007,0.0028,0.0034,0.0046,0.0057,0.0061,0.0066,0.0088,0.0091,0.0084,0.0102,0.0106,0.0073,0.0074,0.0074,0.0075,0,0,-0.0072,-0.0058,-0.0059,-0.0073,-0.0061,-0.0054,-0.0058,-0.0063,-0.0076,-0.005,-0.0057,-0.003,-0.0022,-0.0014,0.0004,0.003,0.0053,0.0049,0.0051,0.0063,0.011,0.0049,0.0047,0.0076,0.0077,0.0077,0.0117,0,-0.0081,-0.0079,-0.0074,-0.0088,-0.0097,-0.0091,-0.0102,-0.0104,-0.0097,-0.0096,-0.0069,-0.0059,-0.0045,-0.0038,-0.0016,0.0046,0.0061,0.0039,0.0115,0.0117,0.0064,0.0049,0.0079,0.012,0.0121,0.0122,0.0122,0,-0.0094,-0.0093,-0.0107,-0.0126,-0.0134,-0.0144,-0.0168,-0.0172,-0.0167,-0.0162,-0.0152,-0.0124,-0.0097,-0.0067,0.0003,-0.0014,0.0031,0.0083,0.0086,0.004,0.0063,0.0131,0.0129,0.0128,0.0128,0.0127,0.0127,0,-0.0116,-0.0125,-0.014,-0.0144,-0.0157,-0.0178,-0.0192,-0.0199,-0.0215,-0.0199,-0.0192,-0.0165,-0.0129,-0.0074,0.0007,0.0007,0.0102,0.0121,0.0106,0.0103,0.0161,0.0161,0.0169,0.0169,0.0169,0.0169,0.0169,0,-0.0133,-0.015,-0.0157,-0.0166,-0.0216,-0.0212,-0.0259,-0.0263,-0.0266,-0.0298,-0.0236,-0.0242,-0.0124,-0.0063,-0.0003,0.0049,0.0088,0.0089,0.0106,0.0146,0.0144,0.0163,0.0162,0.0171,0.017,0.017,0.017,0,-0.0149,-0.0148,-0.0178,-0.0205,-0.0225,-0.0261,-0.0311,-0.0338,-0.0324,-0.0351,-0.0344,-0.028,-0.0213,-0.01,0.0014,0.0038,0.0104,0.0116,0.0139,0.0159,0.0083,0.008,0.0089,0.0087,0.0086,0.0084,0.0083,0,-0.0155,-0.0165,-0.021,-0.0251,-0.0271,-0.0324,-0.0367,-0.0376,-0.0399,-0.0402,-0.0413,-0.0339,-0.03,-0.0157,-0.0067,0.005,0.0065,0.0097,0.0089,0.0058,0.0074,0.0073,0.0072,0.0081,0.008,0.008,0.0079,0,-0.0177,-0.019,-0.0213,-0.0284,-0.0344,-0.0405,-0.0458,-0.0471,-0.0488,-0.048,-0.046,-0.04,-0.0319,-0.0202,-0.0088,-0.002,0.0074,0.0081,0.0085,0.0077,0.0048,0.0065,0.0066,0.0074,0.0075,0.0075,0.0076,0,-0.0203,-0.0226,-0.0255,-0.0317,-0.0401,-0.0462,-0.0484,-0.0505,-0.0515,-0.0498,-0.0518,-0.0423,-0.0364,-0.0244,-0.0172,-0.0078,-0.007,-0.0045,-0.0034,-0.0027,-0.008,-0.0135,-0.0163,0,0,0,0,0,-0.0228,-0.0239,-0.0293,-0.0357,-0.0436,-0.0475,-0.0537,-0.0544,-0.056,-0.0546,-0.052,-0.0459,-0.0351,-0.0299,-0.0214,-0.0222,-0.0065,-0.0128,-0.0031,0.0043,0.005,0.0001,0,0,0,0,0,0,-0.0249,-0.0282,-0.0283,-0.037,-0.042,-0.0498,-0.0537,-0.0545,-0.052,-0.0525,-0.044,-0.0451,-0.0311,-0.037,-0.0206,-0.0189,-0.0126,-0.0078,-0.0077,0.004,0.0045,0.0051,0.0003,0,0,0,0,0]}]]